QPF
0.06 0.06 0.06 0.04 0.02 0.02 0.02 0.03 0.04 0.03 0.03 0.03 0.02 0.01 0.01 0.01 0.02 0.03 0.03 0.04 0.03 0.03 0.04 0.05 0.08 0.11 0.10 0.08 0.07 0.10 0.10 0.12 0.11 0.11 0.09 0.09 0.07 0.08 0.07 0.04 0.05 0.05 0.06
0.03 0.04 0.05 0.04 0.04 0.02 0.02 0.02 0.03 0.02 0.01 0.02 0.02 0.01 0.01 0.01 0.01 0.02 0.03 0.04 0.02 0.02 0.03 0.03 0.06 0.07 0.06 0.06 0.07 0.11 0.13 0.13 0.15 0.13 0.11 0.07 0.06 0.09 0.08 0.04 0.04 0.05 0.07
0.03 0.03 0.02 0.04 0.05 0.03 0.03 0.03 0.02 0.02 0.01 0.01 0.02 0.02 0.02 0.02 0.02 0.02 0.03 0.04 0.03 0.02 0.02 0.04 0.05 0.06 0.05 0.06 0.07 0.08 0.09 0.09 0.10 0.09 0.08 0.03 0.04 0.08 0.06 0.05 0.04 0.05 0.04
0.02 0.01 0.02 0.06 0.08 0.05 0.05 0.03 0.02 0.02 0.01 0.01 0.01 0.01 0.02 0.02 0.02 0.03 0.04 0.05 0.04 0.04 0.04 0.04 0.05 0.05 0.05 0.05 0.06 0.06 0.06 0.06 0.06 0.06 0.04 0.03 0.02 0.06 0.05 0.04 0.05 0.04 0.03
0.02 0.01 0.02 0.03 0.05 0.04 0.04 0.03 0.02 0.03 0.02 0.01 0.01 0.01 0.01 0.02 0.02 0.02 0.04 0.04 0.05 0.05 0.05 0.04 0.03 0.03 0.03 0.03 0.04 0.05 0.05 0.06 0.06 0.03 0.02 0.02 0.03 0.07 0.06 0.04 0.04 0.04 0.03
0.02 0.01 0.01 0.01 0.01 0.01 0.01 0.01 0.01 0.02 0.02 0.02 0.01 0.01 0.01 0.01 0.02 0.02 0.02 0.03 0.03 0.04 0.06 0.04 0.03 0.02 0.02 0.03 0.04 0.06 0.06 0.06 0.05 0.02 0.02 0.02 0.03 0.05 0.05 0.05 0.04 0.05 0.03
0.04 0.02 0.01 0.02 0.01 0.01 0.01 0.00 0.01 0.01 0.02 0.03 0.02 0.02 0.01 0.01 0.01 0.02 0.02 0.02 0.02 0.04 0.07 0.05 0.04 0.04 0.04 0.04 0.05 0.06 0.05 0.04 0.03 0.02 0.02 0.02 0.05 0.06 0.05 0.05 0.06 0.06 0.04
0.02 0.02 0.01 0.01 0.01 0.01 0.01 0.01 0.01 0.01 0.01 0.02 0.02 0.01 0.01 0.01 0.01 0.02 0.02 0.02 0.02 0.03 0.06 0.06 0.07 0.06 0.05 0.05 0.05 0.04 0.04 0.03 0.02 0.01 0.01 0.03 0.07 0.08 0.06 0.06 0.06 0.06 0.04
0.03 0.03 0.01 0.01 0.01 0.01 0.01 0.01 0.01 0.01 0.01 0.01 0.02 0.01 0.01 0.01 0.02 0.02 0.02 0.02 0.02 0.03 0.05 0.06 0.06 0.06 0.05 0.06 0.06 0.05 0.03 0.02 0.01 0.01 0.01 0.03 0.08 0.06 0.05 0.04 0.04 0.03 0.04
0.03 0.03 0.02 0.01 0.01 0.01 0.01 0.01 0.01 0.01 0.01 0.02 0.02 0.01 0.01 0.01 0.01 0.02 0.02 0.02 0.02 0.04 0.04 0.04 0.04 0.03 0.04 0.05 0.07 0.05 0.04 0.02 0.00 0.01 0.01 0.03 0.07 0.06 0.04 0.04 0.04 0.03 0.04
0.02 0.03 0.02 0.01 0.01 0.01 0.01 0.01 0.01 0.01 0.01 0.02 0.02 0.01 0.01 0.00 0.00 0.01 0.02 0.04 0.04 0.03 0.03 0.03 0.03 0.03 0.03 0.04 0.06 0.05 0.03 0.01 0.01 0.01 0.02 0.05 0.06 0.06 0.05 0.05 0.04 0.03 0.03
0.03 0.03 0.03 0.02 0.01 0.01 0.01 0.01 0.01 0.01 0.01 0.01 0.01 0.01 0.01 0.00 0.00 0.00 0.02 0.04 0.04 0.03 0.02 0.03 0.03 0.03 0.02 0.02 0.03 0.03 0.03 0.02 0.03 0.02 0.03 0.06 0.07 0.07 0.07 0.06 0.04 0.04 0.04
0.03 0.03 0.03 0.03 0.03 0.01 0.01 0.01 0.01 0.01 0.01 0.01 0.01 0.01 0.01 0.01 0.01 0.00 0.01 0.01 0.02 0.01 0.01 0.02 0.02 0.02 0.02 0.02 0.02 0.02 0.03 0.02 0.03 0.03 0.05 0.07 0.07 0.06 0.05 0.05 0.04 0.04 0.04
0.03 0.03 0.03 0.02 0.02 0.01 0.01 0.01 0.01 0.02 0.01 0.01 0.01 0.02 0.01 0.00 0.01 0.01 0.01 0.00 0.00 0.01 0.00 0.01 0.02 0.04 0.04 0.03 0.02 0.02 0.03 0.03 0.03 0.03 0.06 0.07 0.06 0.06 0.06 0.05 0.04 0.03 0.02
0.03 0.02 0.02 0.02 0.02 0.02 0.02 0.03 0.03 0.03 0.01 0.02 0.02 0.01 0.00 0.00 0.00 0.01 0.02 0.01 0.01 0.01 0.02 0.02 0.03 0.03 0.03 0.03 0.03 0.02 0.03 0.03 0.04 0.03 0.06 0.07 0.07 0.06 0.05 0.05 0.04 0.03 0.03
0.01 0.02 0.02 0.02 0.03 0.03 0.03 0.05 0.05 0.03 0.02 0.01 0.01 0.01 0.00 0.00 0.01 0.01 0.01 0.01 0.02 0.02 0.03 0.03 0.03 0.04 0.04 0.02 0.02 0.03 0.03 0.03 0.03 0.02 0.03 0.05 0.08 0.07 0.05 0.05 0.06 0.05 0.03
0.01 0.01 0.01 0.02 0.02 0.03 0.05 0.06 0.05 0.02 0.02 0.02 0.01 0.01 0.01 0.00 0.01 0.01 0.01 0.01 0.01 0.01 0.01 0.01 0.02 0.02 0.03 0.02 0.03 0.04 0.03 0.03 0.02 0.02 0.02 0.03 0.03 0.04 0.02 0.03 0.04 0.04 0.04
0.00 0.00 0.01 0.01 0.02 0.02 0.06 0.06 0.04 0.03 0.02 0.02 0.02 0.02 0.01 0.01 0.01 0.01 0.01 0.01 0.01 0.01 0.00 0.01 0.02 0.03 0.02 0.03 0.05 0.05 0.04 0.03 0.02 0.02 0.03 0.03 0.03 0.02 0.02 0.02 0.02 0.03 0.05
0.00 0.01 0.01 0.01 0.01 0.01 0.04 0.07 0.04 0.03 0.03 0.03 0.03 0.03 0.02 0.02 0.01 0.01 0.01 0.01 0.01 0.01 0.01 0.01 0.01 0.03 0.03 0.05 0.05 0.05 0.04 0.03 0.02 0.02 0.02 0.02 0.03 0.03 0.03 0.02 0.01 0.01 0.03
0.01 0.01 0.01 0.01 0.01 0.02 0.03 0.04 0.04 0.03 0.03 0.04 0.04 0.05 0.03 0.02 0.01 0.01 0.00 0.01 0.01 0.01 0.01 0.01 0.01 0.02 0.03 0.05 0.04 0.04 0.03 0.03 0.02 0.02 0.02 0.02 0.03 0.04 0.02 0.03 0.01 0.01 0.01
0.01 0.01 0.01 0.01 0.02 0.02 0.02 0.03 0.03 0.02 0.03 0.04 0.03 0.05 0.05 0.03 0.02 0.01 0.01 0.01 0.01 0.01 0.01 0.01 0.01 0.01 0.02 0.02 0.02 0.03 0.02 0.03 0.02 0.02 0.02 0.03 0.03 0.03 0.02 0.02 0.02 0.01 0.01
0.01 0.02 0.01 0.02 0.03 0.03 0.02 0.02 0.03 0.02 0.02 0.03 0.04 0.04 0.04 0.03 0.02 0.02 0.02 0.01 0.02 0.01 0.01 0.01 0.02 0.03 0.02 0.01 0.02 0.02 0.02 0.03 0.02 0.02 0.03 0.03 0.03 0.03 0.03 0.02 0.02 0.01 0.00
0.02 0.02 0.02 0.02 0.04 0.04 0.04 0.04 0.04 0.04 0.03 0.04 0.05 0.04 0.03 0.03 0.03 0.02 0.02 0.01 0.02 0.02 0.02 0.02 0.03 0.03 0.02 0.01 0.01 0.01 0.01 0.02 0.02 0.02 0.03 0.03 0.04 0.03 0.03 0.03 0.03 0.02 0.01
0.02 0.03 0.03 0.03 0.04 0.06 0.06 0.05 0.06 0.05 0.04 0.03 0.04 0.04 0.03 0.03 0.03 0.02 0.02 0.02 0.02 0.03 0.02 0.02 0.03 0.03 0.02 0.02 0.02 0.01 0.01 0.01 0.02 0.03 0.03 0.04 0.04 0.03 0.02 0.03 0.04 0.04 0.03
0.01 0.01 0.02 0.02 0.04 0.06 0.07 0.07 0.08 0.06 0.03 0.03 0.02 0.03 0.03 0.03 0.02 0.02 0.02 0.03 0.02 0.02 0.02 0.02 0.02 0.02 0.03 0.02 0.03 0.03 0.03 0.02 0.02 0.02 0.03 0.03 0.04 0.04 0.03 0.03 0.03 0.04 0.04
0.01 0.01 0.01 0.02 0.04 0.06 0.08 0.08 0.08 0.07 0.04 0.03 0.03 0.02 0.02 0.02 0.02 0.02 0.01 0.01 0.02 0.02 0.02 0.02 0.01 0.01 0.02 0.02 0.02 0.02 0.02 0.01 0.02 0.03 0.03 0.03 0.04 0.04 0.04 0.03 0.03 0.03 0.04
MSLP
1014.20 1013.73 1013.35 1013.11 1013.01 1013.03 1013.10 1013.15 1013.13 1012.99 1012.76 1012.47 1012.19 1011.97 1011.86 1011.88 1011.99 1012.17 1012.36 1012.50 1012.56 1012.56 1012.49 1012.41 1012.35 1012.35 1012.43 1012.59 1012.81 1013.07 1013.34 1013.59 1013.81 1013.98 1014.12 1014.23 1014.31 1014.38 1014.44 1014.50 1014.57 1014.65 1014.75
1013.98 1013.59 1013.29 1013.12 1013.09 1013.16 1013.25 1013.31 1013.29 1013.15 1012.91 1012.63 1012.36 1012.18 1012.10 1012.15 1012.29 1012.49 1012.68 1012.82 1012.88 1012.86 1012.78 1012.69 1012.61 1012.59 1012.65 1012.77 1012.96 1013.18 1013.42 1013.64 1013.84 1014.01 1014.15 1014.25 1014.34 1014.40 1014.46 1014.51 1014.57 1014.65 1014.77
1013.66 1013.35 1013.13 1013.04 1013.08 1013.20 1013.34 1013.42 1013.41 1013.29 1013.08 1012.83 1012.60 1012.44 1012.39 1012.46 1012.61 1012.79 1012.97 1013.09 1013.13 1013.10 1013.01 1012.91 1012.83 1012.80 1012.83 1012.93 1013.08 1013.27 1013.48 1013.68 1013.86 1014.03 1014.16 1014.28 1014.37 1014.44 1014.50 1014.56 1014.62 1014.72 1014.85
1013.27 1013.03 1012.89 1012.88 1012.99 1013.17 1013.35 1013.48 1013.50 1013.42 1013.25 1013.04 1012.85 1012.74 1012.71 1012.78 1012.91 1013.07 1013.21 1013.29 1013.30 1013.25 1013.16 1013.06 1012.98 1012.95 1012.98 1013.07 1013.20 1013.36 1013.54 1013.72 1013.89 1014.05 1014.20 1014.32 1014.43 1014.51 1014.58 1014.64 1014.72 1014.83 1014.98
1012.87 1012.70 1012.63 1012.69 1012.86 1013.09 1013.32 1013.48 1013.54 1013.50 1013.38 1013.23 1013.09 1013.01 1013.00 1013.07 1013.18 1013.29 1013.38 1013.41 1013.39 1013.32 1013.23 1013.14 1013.08 1013.07 1013.11 1013.19 1013.31 1013.45 1013.61 1013.77 1013.93 1014.09 1014.24 1014.38 1014.49 1014.59 1014.67 1014.75 1014.84 1014.96 1015.13
1012.50 1012.38 1012.38 1012.50 1012.72 1012.99 1013.24 1013.43 1013.52 1013.52 1013.45 1013.35 1013.26 1013.22 1013.23 1013.30 1013.38 1013.45 1013.49 1013.47 1013.42 1013.33 1013.25 1013.18 1013.15 1013.17 1013.23 1013.32 1013.44 1013.56 1013.70 1013.84 1013.99 1014.14 1014.29 1014.43 1014.56 1014.67 1014.76 1014.85 1014.95 1015.08 1015.26
1012.20 1012.14 1012.19 1012.35 1012.60 1012.89 1013.15 1013.34 1013.44 1013.46 1013.42 1013.37 1013.33 1013.33 1013.38 1013.44 1013.51 1013.55 1013.54 1013.49 1013.41 1013.32 1013.25 1013.21 1013.22 1013.27 1013.36 1013.46 1013.58 1013.69 1013.81 1013.93 1014.06 1014.19 1014.34 1014.48 1014.61 1014.72 1014.82 1014.91 1015.01 1015.14 1015.33
1011.98 1011.96 1012.06 1012.26 1012.53 1012.80 1013.04 1013.21 1013.30 1013.32 1013.31 1013.29 1013.30 1013.35 1013.43 1013.51 1013.58 1013.60 1013.58 1013.50 1013.41 1013.32 1013.26 1013.25 1013.30 1013.39 1013.51 1013.63 1013.75 1013.85 1013.94 1014.03 1014.14 1014.25 1014.38 1014.51 1014.64 1014.75 1014.84 1014.93 1015.03 1015.15 1015.31
1011.81 1011.84 1011.99 1012.22 1012.48 1012.74 1012.95 1013.07 1013.13 1013.14 1013.13 1013.14 1013.20 1013.30 1013.42 1013.54 1013.62 1013.65 1013.61 1013.53 1013.43 1013.35 1013.31 1013.33 1013.41 1013.54 1013.68 1013.82 1013.94 1014.03 1014.10 1014.17 1014.24 1014.33 1014.44 1014.55 1014.67 1014.77 1014.86 1014.93 1015.01 1015.11 1015.25
1011.63 1011.73 1011.92 1012.19 1012.46 1012.69 1012.86 1012.94 1012.95 1012.93 1012.93 1012.96 1013.06 1013.21 1013.39 1013.55 1013.66 1013.71 1013.68 1013.60 1013.51 1013.43 1013.41 1013.45 1013.56 1013.71 1013.88 1014.03 1014.16 1014.24 1014.30 1014.34 1014.39 1014.46 1014.54 1014.64 1014.74 1014.83 1014.90 1014.96 1015.01 1015.08 1015.19
1011.38 1011.55 1011.82 1012.12 1012.41 1012.63 1012.76 1012.81 1012.79 1012.75 1012.75 1012.81 1012.95 1013.15 1013.37 1013.58 1013.74 1013.81 1013.80 1013.73 1013.64 1013.57 1013.56 1013.62 1013.75 1013.92 1014.10 1014.27 1014.41 1014.49 1014.54 1014.57 1014.60 1014.65 1014.71 1014.79 1014.87 1014.95 1015.00 1015.04 1015.07 1015.10 1015.17
1011.01 1011.27 1011.61 1011.97 1012.29 1012.53 1012.65 1012.68 1012.65 1012.61 1012.62 1012.71 1012.89 1013.13 1013.41 1013.66 1013.85 1013.95 1013.96 1013.91 1013.82 1013.76 1013.75 1013.82 1013.96 1014.15 1014.35 1014.54 1014.69 1014.79 1014.84 1014.87 1014.89 1014.92 1014.97 1015.03 1015.09 1015.15 1015.18 1015.20 1015.20 1015.20 1015.22
1010.51 1010.85 1011.27 1011.70 1012.07 1012.34 1012.50 1012.55 1012.54 1012.52 1012.55 1012.68 1012.89 1013.18 1013.49 1013.79 1014.01 1014.14 1014.17 1014.12 1014.05 1013.99 1013.99 1014.06 1014.21 1014.41 1014.63 1014.84 1015.01 1015.13 1015.20 1015.24 1015.26 1015.28 1015.31 1015.35 1015.39 1015.42 1015.43 1015.42 1015.39 1015.36 1015.34
1009.89 1010.29 1010.78 1011.28 1011.73 1012.06 1012.28 1012.39 1012.43 1012.46 1012.54 1012.71 1012.96 1013.27 1013.62 1013.94 1014.19 1014.34 1014.39 1014.36 1014.31 1014.26 1014.26 1014.34 1014.49 1014.71 1014.95 1015.18 1015.38 1015.52 1015.61 1015.66 1015.69 1015.70 1015.71 1015.72 1015.73 1015.72 1015.70 1015.65 1015.59 1015.52 1015.47
1009.21 1009.65 1010.19 1010.75 1011.27 1011.69 1011.99 1012.19 1012.32 1012.43 1012.57 1012.77 1013.05 1013.39 1013.75 1014.08 1014.35 1014.53 1014.60 1014.61 1014.58 1014.55 1014.57 1014.66 1014.83 1015.05 1015.30 1015.55 1015.77 1015.94 1016.06 1016.12 1016.15 1016.14 1016.13 1016.10 1016.06 1016.00 1015.92 1015.83 1015.71 1015.61 1015.52
1008.57 1009.01 1009.56 1010.17 1010.75 1011.26 1011.67 1011.98 1012.21 1012.41 1012.61 1012.85 1013.15 1013.50 1013.86 1014.19 1014.47 1014.67 1014.79 1014.84 1014.85 1014.86 1014.92 1015.03 1015.20 1015.43 1015.70 1015.96 1016.19 1016.38 1016.51 1016.58 1016.60 1016.58 1016.52 1016.43 1016.32 1016.19 1016.04 1015.87 1015.69 1015.53 1015.41
1008.08 1008.47 1009.00 1009.62 1010.26 1010.85 1011.36 1011.78 1012.12 1012.40 1012.67 1012.94 1013.24 1013.57 1013.91 1014.24 1014.53 1014.76 1014.92 1015.03 1015.11 1015.18 1015.28 1015.43 1015.62 1015.86 1016.12 1016.39 1016.63 1016.82 1016.95 1017.02 1017.02 1016.96 1016.85 1016.69 1016.49 1016.26 1016.01 1015.75 1015.49 1015.27 1015.09
1007.82 1008.13 1008.61 1009.21 1009.87 1010.52 1011.13 1011.65 1012.09 1012.45 1012.75 1013.04 1013.32 1013.62 1013.93 1014.23 1014.52 1014.78 1015.00 1015.19 1015.35 1015.50 1015.66 1015.84 1016.05 1016.30 1016.55 1016.81 1017.03 1017.22 1017.34 1017.40 1017.38 1017.28 1017.11 1016.87 1016.57 1016.23 1015.86 1015.48 1015.12 1014.82 1014.59
1007.84 1008.05 1008.45 1009.01 1009.67 1010.37 1011.04 1011.64 1012.15 1012.57 1012.90 1013.17 1013.41 1013.65 1013.91 1014.18 1014.47 1014.75 1015.03 1015.30 1015.55 1015.78 1016.01 1016.23 1016.47 1016.71 1016.95 1017.19 1017.39 1017.56 1017.67 1017.71 1017.67 1017.53 1017.30 1016.98 1016.59 1016.13 1015.64 1015.14 1014.67 1014.27 1013.96
1008.15 1008.24 1008.56 1009.06 1009.70 1010.41 1011.13 1011.78 1012.34 1012.78 1013.11 1013.34 1013.53 1013.70 1013.89 1014.11 1014.39 1014.69 1015.03 1015.37 1015.70 1016.01 1016.30 1016.57 1016.82 1017.05 1017.28 1017.48 1017.67 1017.82 1017.92 1017.95 1017.89 1017.73 1017.46 1017.08 1016.61 1016.05 1015.44 1014.83 1014.24 1013.74 1013.35
1008.68 1008.68 1008.91 1009.35 1009.95 1010.65 1011.38 1012.06 1012.63 1013.08 1013.38 1013.57 1013.69 1013.78 1013.90 1014.07 1014.31 1014.62 1014.99 1015.39 1015.79 1016.17 1016.51 1016.80 1017.06 1017.28 1017.48 1017.66 1017.83 1017.97 1018.07 1018.10 1018.05 1017.90 1017.62 1017.21 1016.68 1016.05 1015.36 1014.64 1013.96 1013.36 1012.89
1009.34 1009.28 1009.44 1009.81 1010.36 1011.03 1011.75 1012.42 1012.99 1013.42 1013.69 1013.83 1013.88 1013.90 1013.94 1014.05 1014.26 1014.56 1014.95 1015.38 1015.82 1016.23 1016.60 1016.91 1017.16 1017.37 1017.54 1017.70 1017.85 1017.99 1018.11 1018.18 1018.17 1018.04 1017.79 1017.39 1016.86 1016.20 1015.46 1014.68 1013.93 1013.25 1012.71
1010.04 1009.94 1010.03 1010.34 1010.83 1011.45 1012.13 1012.78 1013.33 1013.74 1013.98 1014.07 1014.07 1014.03 1014.01 1014.07 1014.24 1014.52 1014.90 1015.33 1015.78 1016.20 1016.57 1016.88 1017.11 1017.30 1017.45 1017.60 1017.75 1017.91 1018.06 1018.18 1018.23 1018.17 1017.99 1017.65 1017.15 1016.52 1015.78 1014.99 1014.20 1013.48 1012.89
1010.67 1010.55 1010.59 1010.83 1011.26 1011.81 1012.43 1013.04 1013.56 1013.94 1014.17 1014.24 1014.21 1014.14 1014.09 1014.11 1014.24 1014.49 1014.84 1015.25 1015.68 1016.09 1016.44 1016.72 1016.93 1017.10 1017.24 1017.38 1017.54 1017.73 1017.92 1018.11 1018.24 1018.28 1018.19 1017.95 1017.54 1016.98 1016.30 1015.54 1014.77 1014.05 1013.43
1011.18 1011.05 1011.04 1011.21 1011.55 1012.02 1012.57 1013.12 1013.61 1013.98 1014.20 1014.28 1014.26 1014.19 1014.13 1014.14 1014.24 1014.46 1014.77 1015.15 1015.54 1015.91 1016.23 1016.49 1016.67 1016.82 1016.95 1017.10 1017.27 1017.49 1017.74 1017.99 1018.21 1018.36 1018.38 1018.26 1017.97 1017.52 1016.95 1016.28 1015.57 1014.89 1014.30
1011.55 1011.41 1011.36 1011.45 1011.69 1012.06 1012.52 1013.01 1013.46 1013.81 1014.04 1014.15 1014.17 1014.13 1014.10 1014.12 1014.22 1014.41 1014.69 1015.03 1015.38 1015.71 1016.00 1016.22 1016.39 1016.53 1016.66 1016.81 1017.00 1017.25 1017.54 1017.86 1018.15 1018.39 1018.53 1018.53 1018.39 1018.09 1017.65 1017.11 1016.52 1015.93 1015.40
Thickness
5748 5752 5753 5754 5754 5755 5755 5755 5755 5756 5756 5757 5757 5758 5759 5760 5761 5761 5762 5762 5762 5763 5764 5764 5764 5764 5764 5764 5764 5764 5763 5763 5763 5763 5763 5763 5764 5764 5764 5765 5765 5765 5765
5751 5751 5752 5752 5752 5752 5753 5753 5754 5754 5754 5754 5755 5755 5756 5757 5757 5758 5759 5759 5759 5760 5760 5761 5761 5761 5761 5761 5761 5761 5761 5760 5760 5760 5760 5760 5761 5761 5762 5762 5762 5763 5763
5750 5750 5750 5750 5750 5750 5751 5751 5751 5751 5751 5752 5752 5752 5753 5754 5754 5755 5756 5756 5756 5756 5757 5757 5757 5758 5758 5758 5758 5758 5758 5758 5757 5757 5757 5758 5758 5759 5759 5760 5760 5760 5760
5749 5748 5748 5748 5748 5748 5748 5748 5748 5749 5749 5749 5749 5749 5750 5750 5751 5751 5752 5752 5753 5753 5753 5753 5754 5754 5755 5755 5755 5755 5755 5755 5754 5754 5754 5754 5755 5756 5756 5757 5757 5758 5758
5747 5746 5746 5746 5746 5745 5745 5745 5746 5746 5746 5746 5746 5746 5746 5747 5747 5748 5748 5749 5749 5749 5749 5750 5750 5751 5751 5751 5751 5751 5751 5751 5751 5751 5751 5751 5752 5753 5753 5753 5754 5755 5755
5745 5744 5744 5744 5744 5743 5743 5743 5743 5743 5743 5743 5743 5743 5743 5744 5744 5744 5745 5745 5745 5745 5745 5746 5746 5747 5747 5747 5747 5747 5747 5747 5747 5747 5747 5748 5749 5750 5750 5750 5751 5752 5752
5743 5743 5743 5742 5741 5741 5740 5740 5741 5741 5741 5740 5740 5740 5740 5740 5741 5741 5741 5742 5742 5742 5742 5742 5743 5743 5744 5744 5744 5744 5743 5743 5743 5743 5744 5745 5746 5747 5747 5747 5748 5749 5750
5743 5741 5740 5740 5739 5738 5738 5738 5738 5738 5738 5737 5737 5737 5737 5737 5737 5737 5737 5738 5738 5738 5738 5738 5739 5739 5740 5740 5740 5739 5739 5740 5739 5740 5740 5741 5742 5743 5743 5744 5745 5745 5746
5741 5739 5738 5737 5737 5736 5736 5736 5735 5735 5735 5735 5734 5734 5733 5733 5734 5734 5734 5734 5734 5734 5734 5734 5735 5735 5735 5735 5735 5735 5735 5735 5735 5736 5736 5737 5739 5740 5740 5740 5741 5742 5742
5737 5736 5735 5734 5734 5734 5733 5733 5733 5733 5732 5732 5731 5731 5730 5730 5730 5730 5730 5730 5730 5730 5730 5731 5731 5731 5731 5731 5731 5730 5730 5731 5731 5732 5732 5734 5735 5736 5736 5737 5737 5738 5739
5733 5733 5732 5732 5731 5731 5731 5731 5730 5730 5729 5729 5728 5727 5726 5726 5726 5726 5726 5726 5726 5726 5726 5726 5726 5726 5725 5725 5726 5726 5726 5726 5727 5728 5729 5730 5731 5732 5732 5733 5733 5734 5735
5728 5729 5730 5730 5729 5729 5729 5728 5728 5727 5727 5726 5725 5724 5723 5722 5722 5722 5721 5722 5722 5721 5721 5721 5721 5721 5720 5720 5720 5720 5721 5721 5722 5723 5724 5726 5727 5727 5728 5729 5729 5730 5731
5728 5728 5728 5728 5728 5727 5727 5726 5725 5725 5724 5723 5722 5721 5720 5719 5718 5718 5717 5717 5717 5717 5716 5716 5716 5716 5715 5715 5715 5716 5716 5716 5716 5718 5719 5721 5722 5723 5723 5724 5725 5725 5726
5727 5727 5727 5727 5726 5725 5724 5724 5723 5722 5721 5720 5719 5718 5717 5716 5714 5714 5713 5713 5712 5712 5711 5711 5711 5711 5711 5710 5710 5710 5710 5710 5711 5712 5714 5716 5717 5718 5719 5719 5720 5721 5722
5725 5725 5726 5726 5724 5723 5722 5721 5720 5719 5718 5717 5716 5715 5714 5713 5711 5710 5709 5709 5708 5708 5707 5706 5706 5706 5706 5706 5705 5705 5705 5705 5706 5707 5709 5710 5712 5712 5714 5715 5716 5716 5717
5724 5724 5724 5724 5723 5722 5720 5718 5717 5717 5716 5715 5714 5713 5712 5710 5708 5707 5706 5705 5704 5704 5703 5702 5702 5701 5701 5701 5700 5700 5700 5701 5701 5702 5703 5705 5706 5707 5708 5710 5711 5712 5713
5722 5723 5722 5723 5722 5720 5718 5716 5715 5714 5713 5712 5711 5710 5709 5707 5706 5704 5702 5701 5700 5700 5699 5698 5697 5697 5696 5696 5695 5695 5695 5696 5696 5697 5698 5699 5700 5702 5703 5705 5706 5707 5708
5721 5720 5720 5721 5719 5717 5716 5714 5712 5711 5710 5709 5708 5706 5705 5704 5703 5701 5699 5697 5697 5696 5695 5694 5693 5691 5690 5690 5689 5690 5690 5691 5691 5692 5693 5694 5695 5696 5698 5699 5700 5701 5703
5719 5718 5717 5716 5715 5713 5712 5711 5709 5708 5707 5705 5704 5703 5702 5700 5699 5698 5696 5694 5694 5692 5691 5691 5688 5686 5685 5684 5685 5685 5685 5686 5687 5688 5688 5689 5690 5691 5693 5694 5695 5696 5697
5715 5714 5713 5712 5711 5709 5708 5706 5705 5703 5702 5701 5700 5699 5698 5697 5696 5694 5692 5691 5690 5688 5686 5685 5683 5682 5681 5680 5681 5680 5680 5681 5682 5683 5684 5684 5685 5686 5687 5689 5690 5691 5692
5710 5708 5708 5706 5705 5704 5702 5700 5698 5696 5696 5696 5695 5694 5693 5693 5691 5690 5688 5687 5685 5683 5682 5681 5679 5677 5676 5676 5674 5672 5674 5676 5676 5678 5679 5680 5680 5681 5683 5684 5684 5685 5686
5704 5703 5702 5701 5700 5699 5698 5696 5696 5694 5692 5691 5690 5689 5688 5688 5687 5686 5684 5682 5681 5679 5677 5676 5675 5672 5671 5672 5668 5665 5662 5665 5669 5673 5673 5674 5675 5676 5677 5678 5679 5680 5681
5698 5698 5698 5696 5695 5694 5693 5692 5690 5688 5686 5684 5682 5682 5683 5683 5683 5681 5680 5679 5677 5675 5672 5671 5671 5669 5666 5666 5667 5663 5657 5655 5658 5664 5666 5668 5669 5670 5671 5672 5673 5674 5675
5693 5693 5692 5690 5689 5689 5688 5686 5683 5680 5678 5677 5677 5677 5678 5678 5678 5677 5676 5674 5673 5671 5669 5668 5667 5666 5664 5662 5662 5662 5661 5658 5654 5654 5658 5661 5663 5664 5665 5666 5667 5668 5669
5690 5688 5686 5685 5684 5683 5682 5681 5679 5675 5674 5674 5673 5672 5672 5672 5672 5672 5671 5670 5668 5667 5665 5664 5663 5662 5661 5659 5658 5657 5656 5654 5653 5650 5649 5652 5655 5657 5659 5660 5661 5662 5663
5684 5682 5680 5678 5677 5677 5676 5675 5673 5671 5670 5668 5667 5666 5666 5666 5666 5667 5666 5665 5664 5663 5662 5660 5659 5658 5656 5656 5654 5653 5652 5650 5648 5647 5645 5645 5646 5649 5652 5654 5655 5656 5657